Regional Weather Roundup
Issued by NWS

Home | Current Version | Previous Version | Graphics & Text | Print | Product List | Glossary Off
Versions: 1 2 3 4 5 6 7 8 9 10 11 12 13 14 15 16 17 18 19 20 21 22 23 24 25 26 27 28 29 30 31 32 33 34 35 36 37 38 39 40 41 42 43 44 45 46 47 48 49 50

000
ASUS43 KFSD 171710
RWRSD

WEATHER ROUNDUP FOR SOUTH DAKOTA
NATIONAL WEATHER SERVICE SIOUX FALLS SD
1100 AM CST WED JAN 17 2018

NOTE: "FAIR" INDICATES FEW OR NO CLOUDS BELOW 12,000 FEET WITH NO
SIGNIFICANT WEATHER AND/OR OBSTRUCTIONS TO VISIBILITY.


SDZ001>005-009-010-012>017-171800-
NORTHWEST AND NORTH CENTRAL SOUTH DAKOTA

CITY           SKY/WX    TMP DP  RH WIND       PRES   REMARKS
BUFFALO          N/A     28  18  66 NW16      30.16R WCI  16
FAITH            N/A     30  19  63 W15       30.22R WCI  19
MOBRIDGE       SUNNY     19   8  62 SE5       30.16S WCI  12
$$

SDZ012>016-024>037-041>051-057-063-072>074-171800-
SOUTHWEST AND SOUTH CENTRAL SOUTH DAKOTA

CITY           SKY/WX    TMP DP  RH WIND       PRES   REMARKS
RAPID CTY ARPT SUNNY     40  24  53 NW13      30.26R
PIERRE         SUNNY     19   9  65 W8        30.24R WCI   9
CUSTER         MOSUNNY   39  14  36 VRB5      30.23R
ELLSWORTH AFB  SUNNY     41  23  48 NW16      30.25R
PHILIP         SUNNY     28  15  58 W12       30.27R WCI  18
PINE RIDGE     SUNNY     29  12  49 SW6       30.30R WCI  23
SPEARFISH        N/A     36  19  51 W8G15     30.28S
WINNER         FAIR      28  14  55 SW10      30.27R WCI  19
$$

SDZ004>011-016>023-039-040-171800-
NORTHEAST SOUTH DAKOTA

CITY           SKY/WX    TMP DP  RH WIND       PRES   REMARKS
ABERDEEN       MOSUNNY   17   8  67 SW15      30.19F WCI   2
WATERTOWN      CLOUDY    17   8  67 SW13      30.19S WCI   4
BROOKINGS      CLOUDY    17   6  62 SW15      30.24F WCI   2
SISSETON         N/A     26  10  50 SW32G44   30.03F WCI   9
$$

SDZ017-020-022-023-036>040-048>070-171800-
SOUTHEAST SOUTH DAKOTA

CITY           SKY/WX    TMP DP  RH WIND       PRES   REMARKS
SIOUX FALLS    CLOUDY    17   6  62 SW10      30.32S WCI   5
HURON          SUNNY     19   7  59 S7        30.25S WCI  10
CHAMBERLAIN    SUNNY     25  13  58 SW9       30.26S WCI  16
MITCHELL       SUNNY     20   7  57 S13       30.29F WCI   7
YANKTON        CLOUDY    23   9  55 SW10      30.35S WCI  12
$$

ABBREVIATIONS USED IN REMARKS
   TC - TEMPERATURE IN CELSIUS
  WCI - WIND CHILL INDEX
   HX - HEAT INDEX
  VSB - VISIBILITY





USA.gov is the U.S. government's official web portal to all federal, state and local government web resources and services.